Radiosonde details



Informationen :

Serial : S4250888
Type : Vaisala RS41-SG
Date of production : 16.10.2020
Frequency : 401.000MHz
Launchsite : Kaunas
Nearest town : Lima, PE (1.6km)

Altitude (Max) : 15433m at 2026-08-30 12:21:01
Speed (Max) : 219km/h at altitude 1024m

Average speed : 77km/h
Average ascent rate : 4m/s
Average descent rate : -1m/s
Ascent rate (Max) : 10.3m/s
Descent rate (Max): -1.7m/s

First frame :
LY3OO-11 at 2026-08-30 11:32:46 at altitude 721m (OG: 679m)
Last frame :
LY3OO-11 at 2026-08-30 13:28:31 at altitude 875m (OG: 833m)

Flighttime : 1h55m45s
Ascent time : 48m15s
Descent time : 1h7m30s
Uptime : -
Killtimer : -

Distance (Straight line distance): 11795km

Distance (Route):


Frames : 276


Measurement :

Temperature : -22.9°C
Humidity : 87.4%
Pressure : 0hPa


Vertical profile (SkewT) :


Elevation profile :



Receiving stations :


Receiver Frames First received Last received
LY3OO-11 276 2026-08-30 11:32:46 2026-08-30 13:28:31

Share per receiver :



All frames :


Receiver Date Latitude Longitude Direction Speed Altitude Climb Temperature Humidity Pressure Voltage Killtimer Uptime BKT XDATA
LY3OO-112026-08-30 13:28:31-12.03380-77.039450km/h875m0.0m/s-22.9°C87.4%0hPa0V00:00:0000:00:0000:00:00
LY3OO-112026-08-30 13:27:55-12.03380-77.039450km/h875m0.0m/s-28.6°C84.4%0hPa0V00:00:0000:00:0000:00:00
LY3OO-112026-08-30 13:27:33-12.03380-77.039450km/h875m0.0m/s-32.4°C82.2%0hPa0V00:00:0000:00:0000:00:00
LY3OO-112026-08-30 13:27:12-12.03380-77.039450km/h875m0.0m/s-35.7°C72.7%0hPa0V00:00:0000:00:0000:00:00
LY3OO-112026-08-30 13:26:52-12.03380-77.039450km/h875m0.0m/s-39.6°C70.9%0hPa0V00:00:0000:00:0000:00:00
LY3OO-112026-08-30 13:26:27-12.03380-77.039450km/h875m0.0m/s-44.3°C65.2%0hPa0V00:00:0000:00:0000:00:00
LY3OO-112026-08-30 13:26:07-12.03380-77.039450km/h875m0.0m/s-47.5°C63.6%0hPa0V00:00:0000:00:0000:00:00
LY3OO-112026-08-30 13:25:45-12.03380-77.039450km/h875m0.0m/s-50.9°C41.7%0hPa0V00:00:0000:00:0000:00:00
LY3OO-112026-08-30 13:25:24-12.03380-77.039450km/h875m0.0m/s-54.1°C45.8%0hPa0V00:00:0000:00:0000:00:00
LY3OO-112026-08-30 13:25:04-12.03380-77.039450km/h875m0.0m/s-55.9°C33.5%0hPa0V00:00:0000:00:0000:00:00
LY3OO-112026-08-30 13:24:43-12.03380-77.039450km/h875m0.0m/s-57.2°C21.6%0hPa0V00:00:0000:00:0000:00:00
LY3OO-112026-08-30 13:24:23-12.03380-77.039450km/h875m0.0m/s-53.0°C7.8%0hPa0V00:00:0000:00:0000:00:00
LY3OO-112026-08-30 13:24:02-12.03380-77.039450km/h875m0.0m/s-51.9°C6.0%0hPa0V00:00:0000:00:0000:00:00
LY3OO-112026-08-30 13:23:41-12.03380-77.039450km/h875m0.0m/s-50.5°C4.1%0hPa0V00:00:0000:00:0000:00:00
LY3OO-112026-08-30 13:23:21-12.03380-77.039450km/h875m0.0m/s-50.7°C3.6%0hPa0V00:00:0000:00:0000:00:00
LY3OO-112026-08-30 13:23:01-12.03380-77.039450km/h875m0.0m/s-52.4°C4.0%0hPa0V00:00:0000:00:0000:00:00
LY3OO-112026-08-30 13:22:41-12.03380-77.039450km/h875m0.0m/s-51.9°C3.9%0hPa0V00:00:0000:00:0000:00:00
LY3OO-112026-08-30 13:22:20-12.03380-77.039450km/h875m0.0m/s-51.2°C3.6%0hPa0V00:00:0000:00:0000:00:00
LY3OO-112026-08-30 13:22:00-12.03380-77.039450km/h875m0.0m/s-51.0°C3.7%0hPa0V00:00:0000:00:0000:00:00
LY3OO-112026-08-30 13:21:39-12.03380-77.039450km/h875m0.0m/s-50.0°C3.3%0hPa0V00:00:0000:00:0000:00:00
LY3OO-112026-08-30 13:21:19-12.03380-77.039450km/h875m0.0m/s-51.0°C3.5%0hPa0V00:00:0000:00:0000:00:00
LY3OO-112026-08-30 13:20:59-12.03380-77.039450km/h875m0.0m/s-52.0°C3.7%0hPa0V00:00:0000:00:0000:00:00
LY3OO-112026-08-30 13:20:38-12.03380-77.039450km/h875m0.0m/s-52.6°C3.8%0hPa0V00:00:0000:00:0000:00:00
LY3OO-112026-08-30 13:20:17-12.03380-77.039450km/h875m0.0m/s-53.0°C3.9%0hPa0V00:00:0000:00:0000:00:00
LY3OO-112026-08-30 13:19:56-12.03380-77.039450km/h875m0.0m/s-53.4°C4.0%0hPa0V00:00:0000:00:0000:00:00
LY3OO-112026-08-30 13:18:18-12.04370-77.05766331°201km/h993m-1.5m/s-53.4°C4.2%0hPa0V00:00:0000:00:0000:00:00
LY3OO-112026-08-30 13:17:54-12.04802-77.04710255°199km/h996m0.3m/s-52.1°C4.1%0hPa0V00:00:0000:00:0000:00:00
LY3OO-112026-08-30 13:17:34-12.04090-77.04056191°199km/h995m-0.0m/s-51.0°C4.2%0hPa0V00:00:0000:00:0000:00:00
LY3OO-112026-08-30 13:17:14-12.03199-77.04420126°201km/h992m0.3m/s-48.2°C3.6%0hPa0V00:00:0000:00:0000:00:00
LY3OO-112026-08-30 13:16:53-12.03160-77.0544060°199km/h995m0.8m/s-47.3°C3.7%0hPa0V00:00:0000:00:0000:00:00
LY3OO-112026-08-30 13:16:32-12.04071-77.05867352°199km/h997m0.7m/s-41.6°C2.6%0hPa0V00:00:0000:00:0000:00:00
LY3OO-112026-08-30 13:15:47-12.04340-77.04136208°199km/h993m0.6m/s-34.2°C1.7%0hPa0V00:00:0000:00:0000:00:00
LY3OO-112026-08-30 13:15:26-12.03342-77.04262140°199km/h997m-0.4m/s-35.8°C2.0%0hPa0V00:00:0000:00:0000:00:00
LY3OO-112026-08-30 13:15:05-12.03073-77.0524473°199km/h994m0.4m/s-36.0°C2.0%0hPa0V00:00:0000:00:0000:00:00
LY3OO-112026-08-30 13:14:45-12.03811-77.05870199km/h995m-0.4m/s-35.6°C2.0%0hPa0V00:00:0000:00:0000:00:00
LY3OO-112026-08-30 13:14:24-12.04717-77.05424300°203km/h995m0.1m/s-36.0°C2.0%0hPa0V00:00:0000:00:0000:00:00
LY3OO-112026-08-30 13:13:23-12.03672-77.060560km/h960m0.0m/s-35.7°C2.0%0hPa0V00:00:0000:00:0000:00:00
LY3OO-112026-08-30 13:13:02-12.03672-77.060560km/h960m0.0m/s-36.2°C2.0%0hPa0V00:00:0000:00:0000:00:00
LY3OO-112026-08-30 13:12:42-12.03672-77.060560km/h960m0.0m/s-37.4°C2.1%0hPa0V00:00:0000:00:0000:00:00
LY3OO-112026-08-30 13:12:22-12.03672-77.060560km/h960m0.0m/s-38.0°C2.2%0hPa0V00:00:0000:00:0000:00:00
LY3OO-112026-08-30 13:12:01-12.03672-77.060560km/h960m0.0m/s-39.2°C2.3%0hPa0V00:00:0000:00:0000:00:00
LY3OO-112026-08-30 13:11:41-12.03672-77.060560km/h960m0.0m/s-39.0°C2.3%0hPa0V00:00:0000:00:0000:00:00
LY3OO-112026-08-30 13:11:19-12.03672-77.060560km/h960m0.0m/s-39.9°C2.3%0hPa0V00:00:0000:00:0000:00:00
LY3OO-112026-08-30 13:10:58-12.03672-77.060560km/h960m0.0m/s-40.5°C2.4%0hPa0V00:00:0000:00:0000:00:00
LY3OO-112026-08-30 13:10:38-12.03672-77.060560km/h960m0.0m/s-40.9°C2.4%0hPa0V00:00:0000:00:0000:00:00
LY3OO-112026-08-30 13:10:17-12.03672-77.060560km/h960m0.0m/s-41.5°C2.5%0hPa0V00:00:0000:00:0000:00:00
LY3OO-112026-08-30 13:09:51-12.03672-77.060560km/h960m0.0m/s-42.4°C2.7%0hPa0V00:00:0000:00:0000:00:00
LY3OO-112026-08-30 13:09:31-12.04431-77.05722327°199km/h987m-0.4m/s-42.1°C2.6%0hPa0V00:00:0000:00:0000:00:00
LY3OO-112026-08-30 13:09:05-12.04743-77.04541244°199km/h985m0.2m/s-42.9°C2.7%0hPa0V00:00:0000:00:0000:00:00
LY3OO-112026-08-30 13:08:44-12.03869-77.04034177°199km/h987m0.5m/s-42.6°C2.6%0hPa0V00:00:0000:00:0000:00:00
LY3OO-112026-08-30 13:08:20-12.03040-77.0481199°195km/h985m-1.7m/s-42.5°C2.6%0hPa0V00:00:0000:00:0000:00:00
LY3OO-112026-08-30 13:07:59-12.03462-77.0573633°199km/h986m0.2m/s-43.2°C2.7%0hPa0V00:00:0000:00:0000:00:00
LY3OO-112026-08-30 13:07:39-12.04425-77.05730328°199km/h987m-0.3m/s-43.7°C2.8%0hPa0V00:00:0000:00:0000:00:00
LY3OO-112026-08-30 13:07:18-12.04828-77.04794261°197km/h985m0.5m/s-44.1°C2.7%0hPa0V00:00:0000:00:0000:00:00
LY3OO-112026-08-30 13:06:57-12.04134-77.04057192°199km/h985m0.7m/s-44.1°C2.8%0hPa0V00:00:0000:00:0000:00:00
LY3OO-112026-08-30 13:06:13-12.04891-77.042100km/h1038m0.0m/s-43.3°C2.8%0hPa0V00:00:0000:00:0000:00:00
LY3OO-112026-08-30 13:05:51-12.04891-77.042100km/h1038m0.0m/s-43.0°C2.7%0hPa0V00:00:0000:00:0000:00:00
LY3OO-112026-08-30 13:05:31-12.04891-77.042100km/h1038m0.0m/s-42.7°C2.6%0hPa0V00:00:0000:00:0000:00:00
LY3OO-112026-08-30 13:05:10-12.04891-77.042100km/h1038m0.0m/s-43.0°C2.7%0hPa0V00:00:0000:00:0000:00:00
LY3OO-112026-08-30 13:04:49-12.04891-77.042100km/h1038m0.0m/s-43.1°C2.7%0hPa0V00:00:0000:00:0000:00:00
LY3OO-112026-08-30 13:04:29-12.04891-77.042100km/h1038m0.0m/s-42.9°C2.5%0hPa0V00:00:0000:00:0000:00:00
LY3OO-112026-08-30 13:04:08-12.04729-77.04179191°215km/h1024m4.6m/s-44.4°C2.7%0hPa0V00:00:0000:00:0000:00:00
LY3OO-112026-08-30 13:03:47-12.03644-77.04086162°199km/h988m0.3m/s-45.5°C2.9%0hPa0V00:00:0000:00:0000:00:00
LY3OO-112026-08-30 13:03:26-12.03033-77.0489395°199km/h987m0.2m/s-45.2°C2.9%0hPa0V00:00:0000:00:0000:00:00
LY3OO-112026-08-30 13:03:06-12.03488-77.0575330°199km/h988m0.3m/s-45.4°C2.9%0hPa0V00:00:0000:00:0000:00:00
LY3OO-112026-08-30 13:02:46-12.04448-77.05712326°199km/h989m-0.6m/s-46.0°C3.0%0hPa0V00:00:0000:00:0000:00:00
LY3OO-112026-08-30 13:02:24-12.04807-77.04716256°199km/h988m1.0m/s-46.8°C3.1%0hPa0V00:00:0000:00:0000:00:00
LY3OO-112026-08-30 13:02:03-12.04053-77.04043189°199km/h987m0.4m/s-47.2°C3.2%0hPa0V00:00:0000:00:0000:00:00
LY3OO-112026-08-30 13:01:43-12.03180-77.04449124°199km/h986m0.8m/s-46.8°C3.2%0hPa0V00:00:0000:00:0000:00:00
LY3OO-112026-08-30 13:01:23-12.03158-77.0542758°195km/h987m-0.6m/s-47.1°C3.1%0hPa0V00:00:0000:00:0000:00:00
LY3OO-112026-08-30 13:01:02-12.04064-77.05864353°199km/h987m0.3m/s-48.3°C3.3%0hPa0V00:00:0000:00:0000:00:00
LY3OO-112026-08-30 13:00:41-12.04811-77.05183285°199km/h987m-0.6m/s-48.8°C3.2%0hPa0V00:00:0000:00:0000:00:00
LY3OO-112026-08-30 13:00:20-12.04479-77.04222218°199km/h985m0.1m/s-50.1°C3.6%0hPa0V00:00:0000:00:0000:00:00
LY3OO-112026-08-30 12:59:59-12.03477-77.04162151°197km/h987m-1.5m/s-50.2°C3.7%0hPa0V00:00:0000:00:0000:00:00
LY3OO-112026-08-30 12:59:38-12.03040-77.0507984°199km/h987m0.1m/s-50.4°C3.7%0hPa0V00:00:0000:00:0000:00:00
LY3OO-112026-08-30 12:59:18-12.03654-77.0582919°199km/h988m0.0m/s-50.0°C3.7%0hPa0V00:00:0000:00:0000:00:00
LY3OO-112026-08-30 12:58:57-12.04621-77.05556312°199km/h986m-0.2m/s-49.3°C3.5%0hPa0V00:00:0000:00:0000:00:00
LY3OO-112026-08-30 12:58:37-12.04764-77.04590248°199km/h988m0.5m/s-49.5°C3.5%0hPa0V00:00:0000:00:0000:00:00
LY3OO-112026-08-30 12:58:16-12.03921-77.04039180°199km/h989m-0.2m/s-49.1°C3.5%0hPa0V00:00:0000:00:0000:00:00
LY3OO-112026-08-30 12:57:55-12.03096-77.04614113°199km/h989m0.3m/s-48.9°C3.4%0hPa0V00:00:0000:00:0000:00:00
LY3OO-112026-08-30 12:57:15-12.04204-77.058330km/h992m0.0m/s-49.1°C3.4%0hPa0V00:00:0000:00:0000:00:00
LY3OO-112026-08-30 12:56:54-12.03687-77.059710km/h1009m0.0m/s-49.6°C3.5%0hPa0V00:00:0000:00:0000:00:00
LY3OO-112026-08-30 12:56:33-12.03687-77.059710km/h1009m0.0m/s-49.4°C3.5%0hPa0V00:00:0000:00:0000:00:00
LY3OO-112026-08-30 12:56:13-12.03687-77.059710km/h1009m0.0m/s-49.4°C3.4%0hPa0V00:00:0000:00:0000:00:00
LY3OO-112026-08-30 12:55:53-12.04473-77.05695325°195km/h989m0.5m/s-49.9°C3.4%0hPa0V00:00:0000:00:0000:00:00
LY3OO-112026-08-30 12:55:32-12.04823-77.04787261°199km/h991m0.4m/s-50.5°C3.6%0hPa0V00:00:0000:00:0000:00:00
LY3OO-112026-08-30 12:55:12-12.04171-77.04070196°199km/h990m-0.2m/s-50.6°C3.6%0hPa0V00:00:0000:00:0000:00:00
LY3OO-112026-08-30 12:54:51-12.03220-77.04394129°199km/h988m-0.7m/s-50.9°C3.7%0hPa0V00:00:0000:00:0000:00:00
LY3OO-112026-08-30 12:54:30-12.03147-77.0541061°199km/h986m2.1m/s-50.8°C3.6%0hPa0V00:00:0000:00:0000:00:00
LY3OO-112026-08-30 12:54:09-12.04044-77.05869354°199km/h989m-0.3m/s-51.2°C3.8%0hPa0V00:00:0000:00:0000:00:00
LY3OO-112026-08-30 12:53:49-12.04790-77.05253290°199km/h990m0.1m/s-51.8°C3.8%0hPa0V00:00:0000:00:0000:00:00
LY3OO-112026-08-30 12:53:28-12.04496-77.04236219°199km/h988m1.0m/s-51.8°C3.9%0hPa0V00:00:0000:00:0000:00:00
LY3OO-112026-08-30 12:53:08-12.03540-77.04131155°199km/h989m0.4m/s-51.9°C3.8%0hPa0V00:00:0000:00:0000:00:00
LY3OO-112026-08-30 12:52:47-12.03031-77.0495791°199km/h989m0.2m/s-52.0°C3.9%0hPa0V00:00:0000:00:0000:00:00
LY3OO-112026-08-30 12:52:28-12.03541-77.0578427°197km/h990m-0.9m/s-51.6°C3.7%0hPa0V00:00:0000:00:0000:00:00
LY3OO-112026-08-30 12:52:07-12.04535-77.05644320°199km/h991m0.0m/s-51.8°C3.8%0hPa0V00:00:0000:00:0000:00:00
LY3OO-112026-08-30 12:51:45-12.04789-77.04659252°199km/h991m-0.5m/s-51.8°C3.9%0hPa0V00:00:0000:00:0000:00:00
LY3OO-112026-08-30 12:51:25-12.04043-77.04045188°199km/h989m-0.7m/s-51.7°C3.9%0hPa0V00:00:0000:00:0000:00:00
LY3OO-112026-08-30 12:51:04-12.03148-77.04503120°201km/h990m-0.4m/s-51.3°C3.6%0hPa0V00:00:0000:00:0000:00:00
LY3OO-112026-08-30 12:50:44-12.03191-77.0547856°199km/h988m0.1m/s-51.7°C3.6%0hPa0V00:00:0000:00:0000:00:00
LY3OO-112026-08-30 12:50:22-12.04172-77.05842346°199km/h988m0.1m/s-52.4°C3.9%0hPa0V00:00:0000:00:0000:00:00
LY3OO-112026-08-30 12:50:00-12.04836-77.05022275°199km/h987m-0.3m/s-53.1°C4.0%0hPa0V00:00:0000:00:0000:00:00
LY3OO-112026-08-30 12:49:40-12.04386-77.04160211°199km/h988m-0.3m/s-53.0°C4.1%0hPa0V00:00:0000:00:0000:00:00
LY3OO-112026-08-30 12:49:19-12.03386-77.04226144°199km/h988m-0.1m/s-52.9°C3.9%0hPa0V00:00:0000:00:0000:00:00
LY3OO-112026-08-30 12:48:59-12.03050-77.0513979°199km/h989m-0.2m/s-52.8°C4.0%0hPa0V00:00:0000:00:0000:00:00
LY3OO-112026-08-30 12:48:38-12.03761-77.0585612°199km/h986m-0.0m/s-53.1°C4.1%0hPa0V00:00:0000:00:0000:00:00
LY3OO-112026-08-30 12:48:17-12.04687-77.05463305°199km/h988m0.5m/s-52.8°C3.9%0hPa0V00:00:0000:00:0000:00:00
LY3OO-112026-08-30 12:47:56-12.04687-77.04445237°199km/h990m-0.0m/s-53.1°C4.0%0hPa0V00:00:0000:00:0000:00:00
LY3OO-112026-08-30 12:47:34-12.03712-77.04066167°199km/h991m0.2m/s-53.5°C4.1%0hPa0V00:00:0000:00:0000:00:00
LY3OO-112026-08-30 12:47:13-12.03041-77.0482299°199km/h990m0.5m/s-53.6°C4.1%0hPa0V00:00:0000:00:0000:00:00
LY3OO-112026-08-30 12:46:52-12.03470-77.0574232°199km/h989m0.0m/s-53.6°C4.1%0hPa0V00:00:0000:00:0000:00:00
LY3OO-112026-08-30 12:46:32-12.04431-77.05722328°199km/h991m-0.1m/s-52.8°C4.0%0hPa0V00:00:0000:00:0000:00:00
LY3OO-112026-08-30 12:46:13-12.04830-77.04836263°199km/h989m0.3m/s-52.9°C3.9%0hPa0V00:00:0000:00:0000:00:00
LY3OO-112026-08-30 12:45:51-12.04171-77.04068196°197km/h988m0.1m/s-52.8°C4.0%0hPa0V00:00:0000:00:0000:00:00
LY3OO-112026-08-30 12:45:30-12.03221-77.04392129°199km/h990m0.2m/s-53.3°C4.1%0hPa0V00:00:0000:00:0000:00:00
LY3OO-112026-08-30 12:45:09-12.04203-77.058450km/h987m0.0m/s-53.3°C4.1%0hPa0V00:00:0000:00:0000:00:00
LY3OO-112026-08-30 12:44:48-12.04203-77.058450km/h987m0.0m/s-53.1°C4.0%0hPa0V00:00:0000:00:0000:00:00
LY3OO-112026-08-30 12:44:27-12.03661-77.061070km/h964m0.0m/s-53.1°C4.0%0hPa0V00:00:0000:00:0000:00:00
LY3OO-112026-08-30 12:44:05-12.03661-77.061070km/h964m0.0m/s-53.4°C4.0%0hPa0V00:00:0000:00:0000:00:00
LY3OO-112026-08-30 12:43:44-12.03661-77.061070km/h964m0.0m/s-53.9°C4.2%0hPa0V00:00:0000:00:0000:00:00
LY3OO-112026-08-30 12:43:23-12.04431-77.05725328°199km/h989m0.9m/s-54.0°C4.1%0hPa0V00:00:0000:00:0000:00:00
LY3OO-112026-08-30 12:43:03-12.04824-77.04787261°199km/h988m-1.0m/s-54.2°C4.2%0hPa0V00:00:0000:00:0000:00:00
LY3OO-112026-08-30 12:42:41-12.04123-77.04059193°199km/h988m0.3m/s-54.2°C4.3%0hPa0V00:00:0000:00:0000:00:00
LY3OO-112026-08-30 12:42:20-12.03190-77.04435126°199km/h989m0.1m/s-53.7°C4.1%0hPa0V00:00:0000:00:0000:00:00
LY3OO-112026-08-30 12:41:57-12.03235-77.0553452°199km/h985m-1.3m/s-53.6°C4.1%0hPa0V00:00:0000:00:0000:00:00
LY3OO-112026-08-30 12:41:33-12.04334-77.05782335°199km/h985m-0.2m/s-53.9°C4.4%0hPa0V00:00:0000:00:0000:00:00
LY3OO-112026-08-30 12:41:092.70390-79.465680km/h47m0.0m/s-54.4°C4.7%0hPa0V00:00:0000:00:0000:00:00
LY3OO-112026-08-30 12:40:482.70390-79.465680km/h47m0.0m/s-53.8°C4.5%0hPa0V00:00:0000:00:0000:00:00
LY3OO-112026-08-30 12:40:282.70390-79.465680km/h47m0.0m/s-54.0°C4.5%0hPa0V00:00:0000:00:0000:00:00
LY3OO-112026-08-30 12:40:082.70390-79.465680km/h47m0.0m/s-54.1°C4.5%0hPa0V00:00:0000:00:0000:00:00
LY3OO-112026-08-30 12:39:462.70390-79.465680km/h47m0.0m/s-54.5°C4.6%0hPa0V00:00:0000:00:0000:00:00
LY3OO-112026-08-30 12:39:252.70390-79.465680km/h47m0.0m/s-54.7°C4.7%0hPa0V00:00:0000:00:0000:00:00
LY3OO-112026-08-30 12:39:032.70390-79.465680km/h47m0.0m/s-54.9°C4.8%0hPa0V00:00:0000:00:0000:00:00
LY3OO-112026-08-30 12:36:58-13.74116-75.401460km/h15m0.0m/s-53.7°C4.4%0hPa0V00:00:0000:00:0000:00:00
LY3OO-112026-08-30 12:35:48-73.6021389.928400km/h3076m0.0m/s-54.2°C3.6%0hPa0V00:00:0000:00:0000:00:00
LY3OO-112026-08-30 12:35:26-73.6021389.928400km/h3076m0.0m/s-54.1°C4.1%0hPa0V00:00:0000:00:0000:00:00
LY3OO-112026-08-30 12:27:0254.6942731.90428314°99km/h1173m-0.5m/s-51.6°C3.7%0hPa0V00:00:0000:00:0000:00:00
LY3OO-112026-08-30 12:26:4140.0951087.561910km/h960m0.0m/s-51.3°C3.6%0hPa0V00:00:0000:00:0000:00:00
LY3OO-112026-08-30 12:25:3754.7075331.922360km/h1717m0.0m/s-50.7°C3.6%0hPa0V00:00:0000:00:0000:00:00
LY3OO-112026-08-30 12:24:1654.7071031.9046649°99km/h976m-0.3m/s-49.8°C3.6%0hPa0V00:00:0000:00:0000:00:00
LY3OO-112026-08-30 12:23:5254.6919331.906890km/h980m0.0m/s-49.1°C3.4%0hPa0V00:00:0000:00:0000:00:00
LY3OO-112026-08-30 12:23:3254.6919331.906890km/h980m0.0m/s-49.9°C3.4%0hPa0V00:00:0000:00:0000:00:00
LY3OO-112026-08-30 12:23:1054.6919331.906890km/h980m0.0m/s-51.3°C3.7%0hPa0V00:00:0000:00:0000:00:00
LY3OO-112026-08-30 12:22:4954.6914131.91434273°99km/h998m-0.1m/s-51.2°C3.8%0hPa0V00:00:0000:00:0000:00:00
LY3OO-112026-08-30 12:22:2854.6925931.92290239°99km/h989m0.2m/s-51.0°C3.8%0hPa0V00:00:0000:00:0000:00:00
LY3OO-112026-08-30 12:22:0754.6966331.929700km/h955m0.0m/s-51.1°C3.7%0hPa0V00:00:0000:00:0000:00:00
LY3OO-112026-08-30 12:21:4354.9811224.390430km/h15433m0.0m/s-51.3°C1.5%0hPa0V00:00:0000:00:0000:00:00
LY3OO-112026-08-30 12:21:2254.9811224.390430km/h15433m0.0m/s-51.5°C1.5%0hPa0V00:00:0000:00:0000:00:00
LY3OO-112026-08-30 12:21:0154.9811224.390430km/h15433m0.0m/s-51.8°C1.5%0hPa0V00:00:0000:00:0000:00:00
LY3OO-112026-08-30 12:20:4054.9806624.3885471°37km/h15386m3.8m/s-51.6°C1.5%0hPa0V00:00:0000:00:0000:00:00
LY3OO-112026-08-30 12:20:1754.9799924.3853478°33km/h15285m3.8m/s-51.4°C1.5%0hPa0V00:00:0000:00:0000:00:00
LY3OO-112026-08-30 12:19:5654.9796924.3824581°33km/h15195m4.5m/s-51.6°C1.6%0hPa0V00:00:0000:00:0000:00:00
LY3OO-112026-08-30 12:19:3354.9793524.3792288°27km/h15091m4.4m/s-51.4°C1.5%0hPa0V00:00:0000:00:0000:00:00
LY3OO-112026-08-30 12:19:1354.9791024.3760876°35km/h15004m4.3m/s-51.1°C1.5%0hPa0V00:00:0000:00:0000:00:00
LY3OO-112026-08-30 12:18:5254.9787324.3731574°35km/h14913m5.4m/s-50.8°C1.5%0hPa0V00:00:0000:00:0000:00:00
LY3OO-112026-08-30 12:18:3154.9784924.3702594°35km/h14818m4.1m/s-51.1°C1.6%0hPa0V00:00:0000:00:0000:00:00
LY3OO-112026-08-30 12:18:1054.9783024.3668488°47km/h14727m4.8m/s-51.4°C1.7%0hPa0V00:00:0000:00:0000:00:00
LY3OO-112026-08-30 12:17:4954.9781724.3629085°44km/h14633m3.8m/s-51.6°C1.7%0hPa0V00:00:0000:00:0000:00:00
LY3OO-112026-08-30 12:17:2954.9777724.3591086°46km/h14547m5.0m/s-51.5°C1.8%0hPa0V00:00:0000:00:0000:00:00
LY3OO-112026-08-30 12:17:0954.9775724.3553484°46km/h14457m3.5m/s-51.4°C1.7%0hPa0V00:00:0000:00:0000:00:00
LY3OO-112026-08-30 12:16:4854.9772624.3511790°51km/h14369m3.9m/s-51.4°C1.6%0hPa0V00:00:0000:00:0000:00:00
LY3OO-112026-08-30 12:16:2854.9771224.3468186°49km/h14283m4.0m/s-51.0°C1.7%0hPa0V00:00:0000:00:0000:00:00
LY3OO-112026-08-30 12:16:0954.9767624.3424782°51km/h14198m4.3m/s-51.5°C1.8%0hPa0V00:00:0000:00:0000:00:00
LY3OO-112026-08-30 12:15:4754.9762124.3377683°57km/h14113m5.1m/s-51.4°C1.8%0hPa0V00:00:0000:00:0000:00:00
LY3OO-112026-08-30 12:15:2754.9756924.3329576°53km/h14033m3.9m/s-51.2°C1.8%0hPa0V00:00:0000:00:0000:00:00
LY3OO-112026-08-30 12:15:0654.9753824.3282487°60km/h13949m3.2m/s-51.8°C1.8%0hPa0V00:00:0000:00:0000:00:00
LY3OO-112026-08-30 12:14:4554.9751424.3236981°46km/h13868m3.7m/s-51.8°C2.0%0hPa0V00:00:0000:00:0000:00:00
LY3OO-112026-08-30 12:14:2454.9747124.3194384°47km/h13781m3.2m/s-51.4°C1.9%0hPa0V00:00:0000:00:0000:00:00
LY3OO-112026-08-30 12:14:0354.9741624.3154578°44km/h13698m3.8m/s-50.9°C1.8%0hPa0V00:00:0000:00:0000:00:00
LY3OO-112026-08-30 12:13:4254.9741024.3117493°42km/h13614m3.5m/s-51.3°C1.9%0hPa0V00:00:0000:00:0000:00:00
LY3OO-112026-08-30 12:13:2154.9739524.3081485°38km/h13525m4.3m/s-50.8°C1.8%0hPa0V00:00:0000:00:0000:00:00
LY3OO-112026-08-30 12:13:0154.9735924.3049785°38km/h13441m2.8m/s-51.1°C2.1%0hPa0V00:00:0000:00:0000:00:00
LY3OO-112026-08-30 12:12:1954.9729024.2971482°44km/h13254m4.6m/s-51.1°C2.3%0hPa0V00:00:0000:00:0000:00:00
LY3OO-112026-08-30 12:11:5954.9725824.2935491°44km/h13156m4.3m/s-50.4°C2.5%0hPa0V00:00:0000:00:0000:00:00
LY3OO-112026-08-30 12:11:3954.9725924.2893591°49km/h13064m4.1m/s-50.2°C2.6%0hPa0V00:00:0000:00:0000:00:00
LY3OO-112026-08-30 12:11:1854.9725224.2848193°55km/h12968m5.5m/s-50.8°C3.0%0hPa0V00:00:0000:00:0000:00:00
LY3OO-112026-08-30 12:10:5854.9725424.2806185°49km/h12877m3.5m/s-51.5°C3.6%0hPa0V00:00:0000:00:0000:00:00
LY3OO-112026-08-30 12:10:3754.9722824.2760683°46km/h12784m3.5m/s-51.2°C3.5%0hPa0V00:00:0000:00:0000:00:00
LY3OO-112026-08-30 12:10:1654.9719724.2717987°46km/h12693m3.3m/s-50.6°C3.7%0hPa0V00:00:0000:00:0000:00:00
LY3OO-112026-08-30 12:09:5654.9719224.2677385°47km/h12598m5.4m/s-49.9°C4.1%0hPa0V00:00:0000:00:0000:00:00
LY3OO-112026-08-30 12:09:3654.9720524.2631892°60km/h12498m4.7m/s-50.7°C4.9%0hPa0V00:00:0000:00:0000:00:00
LY3OO-112026-08-30 12:09:1554.9719624.2578788°53km/h12403m3.6m/s-51.0°C5.4%0hPa0V00:00:0000:00:0000:00:00
LY3OO-112026-08-30 12:08:5454.9716524.2526281°58km/h12307m5.6m/s-52.6°C6.7%0hPa0V00:00:0000:00:0000:00:00
LY3OO-112026-08-30 12:08:3354.9707824.2472675°57km/h12202m4.2m/s-53.7°C8.9%0hPa0V00:00:0000:00:0000:00:00
LY3OO-112026-08-30 12:08:1354.9698924.2431286°44km/h12099m5.0m/s-53.7°C11.7%0hPa0V00:00:0000:00:0000:00:00
LY3OO-112026-08-30 12:07:5354.9695824.2391997°47km/h11997m6.7m/s-54.9°C19.0%0hPa0V00:00:0000:00:0000:00:00
LY3OO-112026-08-30 12:07:3154.9695124.2332880°71km/h11888m4.6m/s-55.9°C28.5%0hPa0V00:00:0000:00:0000:00:00
LY3OO-112026-08-30 12:07:1154.9687724.2278776°62km/h11778m5.4m/s-56.8°C39.0%0hPa0V00:00:0000:00:0000:00:00
LY3OO-112026-08-30 12:06:5054.9681524.2235078°46km/h11670m6.0m/s-58.2°C52.2%0hPa0V00:00:0000:00:0000:00:00
LY3OO-112026-08-30 12:06:3054.9674724.2191672°49km/h11562m5.8m/s-58.5°C56.1%0hPa0V00:00:0000:00:0000:00:00
LY3OO-112026-08-30 12:06:0754.9666524.2143174°60km/h11445m4.1m/s-57.5°C49.5%0hPa0V00:00:0000:00:0000:00:00
LY3OO-112026-08-30 12:05:4754.9659024.2093476°53km/h11329m5.3m/s-56.5°C43.4%0hPa0V00:00:0000:00:0000:00:00
LY3OO-112026-08-30 12:05:2654.9649124.2046867°55km/h11223m5.3m/s-55.6°C40.6%0hPa0V00:00:0000:00:0000:00:00
LY3OO-112026-08-30 12:05:0654.9639424.2001470°51km/h11116m5.9m/s-54.8°C40.2%0hPa0V00:00:0000:00:0000:00:00
LY3OO-112026-08-30 12:04:4454.9627824.1949367°64km/h11005m3.2m/s-54.0°C39.1%0hPa0V00:00:0000:00:0000:00:00
LY3OO-112026-08-30 12:04:2454.9614424.1899965°62km/h10908m4.5m/s-53.6°C47.8%0hPa0V00:00:0000:00:0000:00:00
LY3OO-112026-08-30 12:04:0354.9600024.1846958°64km/h10807m3.9m/s-53.7°C61.0%0hPa0V00:00:0000:00:0000:00:00
LY3OO-112026-08-30 12:03:4354.9585124.1801662°62km/h10702m5.7m/s-52.8°C59.3%0hPa0V00:00:0000:00:0000:00:00
LY3OO-112026-08-30 12:03:2254.9569824.1755562°66km/h10588m4.1m/s-51.9°C65.3%0hPa0V00:00:0000:00:0000:00:00
LY3OO-112026-08-30 12:03:0154.9555924.1706763°57km/h10488m5.0m/s-50.9°C70.0%0hPa0V00:00:0000:00:0000:00:00
LY3OO-112026-08-30 12:02:4154.9542024.1661362°58km/h10394m4.4m/s-50.0°C67.3%0hPa0V00:00:0000:00:0000:00:00
LY3OO-112026-08-30 12:02:2054.9526524.1615859°58km/h10292m5.1m/s-49.0°C69.6%0hPa0V00:00:0000:00:0000:00:00
LY3OO-112026-08-30 12:02:0054.9512424.1567764°57km/h10175m5.0m/s-47.9°C67.1%0hPa0V00:00:0000:00:0000:00:00
LY3OO-112026-08-30 12:01:3954.9498424.1519068°58km/h10063m3.8m/s-47.0°C73.4%0hPa0V00:00:0000:00:0000:00:00
LY3OO-112026-08-30 12:01:1854.9486724.1472868°55km/h9974m4.5m/s-46.2°C75.4%0hPa0V00:00:0000:00:0000:00:00
LY3OO-112026-08-30 12:00:5754.9475124.1425373°58km/h9883m4.0m/s-45.4°C77.2%0hPa0V00:00:0000:00:0000:00:00
LY3OO-112026-08-30 12:00:3754.9464224.1379568°57km/h9796m4.6m/s-44.6°C80.4%0hPa0V00:00:0000:00:0000:00:00
LY3OO-112026-08-30 12:00:1754.9453124.1330771°57km/h9709m4.0m/s-43.9°C80.0%0hPa0V00:00:0000:00:0000:00:00
LY3OO-112026-08-30 11:59:5654.9442524.1283773°55km/h9619m4.6m/s-43.1°C77.6%0hPa0V00:00:0000:00:0000:00:00
LY3OO-112026-08-30 11:59:3654.9433824.1238174°55km/h9520m7.4m/s-42.2°C75.6%0hPa0V00:00:0000:00:0000:00:00
LY3OO-112026-08-30 11:59:1554.9424424.1188577°58km/h9390m5.1m/s-41.1°C76.0%0hPa0V00:00:0000:00:0000:00:00
LY3OO-112026-08-30 11:58:5454.9416324.1138678°49km/h9296m4.8m/s-40.3°C75.3%0hPa0V00:00:0000:00:0000:00:00
LY3OO-112026-08-30 11:58:3454.9407524.1088673°68km/h9186m4.3m/s-39.4°C74.7%0hPa0V00:00:0000:00:0000:00:00
LY3OO-112026-08-30 11:58:1354.9399424.1033189°62km/h9078m7.1m/s-38.5°C74.8%0hPa0V00:00:0000:00:0000:00:00
LY3OO-112026-08-30 11:57:5254.9392724.0981379°57km/h8967m6.2m/s-37.5°C75.3%0hPa0V00:00:0000:00:0000:00:00
LY3OO-112026-08-30 11:57:3254.9386724.0932375°60km/h8851m4.0m/s-36.5°C75.3%0hPa0V00:00:0000:00:0000:00:00
LY3OO-112026-08-30 11:57:1154.9379524.0883278°53km/h8738m6.3m/s-35.6°C74.1%0hPa0V00:00:0000:00:0000:00:00
LY3OO-112026-08-30 11:56:5154.9373824.0834780°71km/h8633m6.4m/s-34.7°C75.6%0hPa0V00:00:0000:00:0000:00:00
LY3OO-112026-08-30 11:56:3054.9365224.0780075°58km/h8517m3.5m/s-33.8°C75.8%0hPa0V00:00:0000:00:0000:00:00
LY3OO-112026-08-30 11:56:1154.9355824.0731865°60km/h8427m10.3m/s-33.3°C71.6%0hPa0V00:00:0000:00:0000:00:00
LY3OO-112026-08-30 11:55:4954.9344524.0681269°64km/h8302m6.1m/s-32.3°C73.4%0hPa0V00:00:0000:00:0000:00:00
LY3OO-112026-08-30 11:55:2954.9332124.0631267°71km/h8207m3.2m/s-31.6°C68.5%0hPa0V00:00:0000:00:0000:00:00
LY3OO-112026-08-30 11:55:0854.9319524.0581078°55km/h8097m5.4m/s-30.9°C54.7%0hPa0V00:00:0000:00:0000:00:00
LY3OO-112026-08-30 11:54:4854.9312924.0538563°49km/h7986m7.8m/s-29.8°C43.9%0hPa0V00:00:0000:00:0000:00:00
LY3OO-112026-08-30 11:54:2754.9303624.0493861°47km/h7874m5.2m/s-28.7°C38.7%0hPa0V00:00:0000:00:0000:00:00
LY3OO-112026-08-30 11:54:0654.9292724.0449265°55km/h7751m6.2m/s-27.6°C31.1%0hPa0V00:00:0000:00:0000:00:00
LY3OO-112026-08-30 11:53:4554.9283824.0405772°49km/h7652m4.0m/s-26.7°C37.6%0hPa0V00:00:0000:00:0000:00:00
LY3OO-112026-08-30 11:53:2554.9273424.0370375°47km/h7544m8.3m/s-26.0°C21.8%0hPa0V00:00:0000:00:0000:00:00
LY3OO-112026-08-30 11:53:0454.9265624.0333378°42km/h7411m5.5m/s-25.1°C61.6%0hPa0V00:00:0000:00:0000:00:00
LY3OO-112026-08-30 11:52:4354.9261624.0295183°44km/h7294m5.1m/s-24.2°C80.4%0hPa0V00:00:0000:00:0000:00:00
LY3OO-112026-08-30 11:52:2254.9259124.0256284°46km/h7188m6.0m/s-23.4°C80.5%0hPa0V00:00:0000:00:0000:00:00
LY3OO-112026-08-30 11:52:0154.9255624.0208691°42km/h7086m4.0m/s-22.4°C73.3%0hPa0V00:00:0000:00:0000:00:00
LY3OO-112026-08-30 11:51:4154.9252224.0165784°53km/h6982m6.3m/s-21.4°C69.1%0hPa0V00:00:0000:00:0000:00:00
LY3OO-112026-08-30 11:51:2254.9248024.0121877°47km/h6873m5.1m/s-20.5°C70.2%0hPa0V00:00:0000:00:0000:00:00
LY3OO-112026-08-30 11:51:0054.9241224.0076987°40km/h6773m5.7m/s-19.7°C66.5%0hPa0V00:00:0000:00:0000:00:00
LY3OO-112026-08-30 11:50:3954.9235824.0038667°46km/h6668m4.9m/s-18.9°C69.1%0hPa0V00:00:0000:00:0000:00:00
LY3OO-112026-08-30 11:50:1954.9227724.0001072°46km/h6592m3.4m/s-18.5°C55.6%0hPa0V00:00:0000:00:0000:00:00
LY3OO-112026-08-30 11:50:0054.9221123.9960373°47km/h6498m5.2m/s-17.9°C25.7%0hPa0V00:00:0000:00:0000:00:00
LY3OO-112026-08-30 11:49:3854.9215123.9917776°49km/h6393m5.1m/s-17.2°C31.9%0hPa0V00:00:0000:00:0000:00:00
LY3OO-112026-08-30 11:49:1954.9207023.9874562°51km/h6300m7.2m/s-16.4°C9.5%0hPa0V00:00:0000:00:0000:00:00
LY3OO-112026-08-30 11:48:5754.9197523.9830073°60km/h6205m5.0m/s-15.7°C8.5%0hPa0V00:00:0000:00:0000:00:00
LY3OO-112026-08-30 11:48:3654.9187123.9790462°44km/h6092m4.3m/s-15.0°C6.5%0hPa0V00:00:0000:00:0000:00:00
LY3OO-112026-08-30 11:48:1654.9175823.9751767°44km/h5997m3.6m/s-14.8°C7.4%0hPa0V00:00:0000:00:0000:00:00
LY3OO-112026-08-30 11:47:5554.9167823.9719391°35km/h5914m6.3m/s-15.3°C22.0%0hPa0V00:00:0000:00:0000:00:00
LY3OO-112026-08-30 11:47:3454.9164523.9678276°37km/h5819m5.5m/s-14.9°C19.1%0hPa0V00:00:0000:00:0000:00:00
LY3OO-112026-08-30 11:47:1454.9161423.9645074°37km/h5724m4.4m/s-15.2°C23.2%0hPa0V00:00:0000:00:0000:00:00
LY3OO-112026-08-30 11:46:5354.9157223.9602381°51km/h5619m4.8m/s-14.7°C51.1%0hPa0V00:00:0000:00:0000:00:00
LY3OO-112026-08-30 11:46:3254.9155023.9557990°51km/h5520m2.7m/s-13.9°C46.0%0hPa0V00:00:0000:00:0000:00:00
LY3OO-112026-08-30 11:46:1154.9157223.9517783°49km/h5428m6.6m/s-13.1°C43.7%0hPa0V00:00:0000:00:0000:00:00
LY3OO-112026-08-30 11:45:5054.9156423.9480475°44km/h5327m5.1m/s-12.3°C41.6%0hPa0V00:00:0000:00:0000:00:00
LY3OO-112026-08-30 11:45:2954.9154423.9438579°40km/h5220m4.9m/s-11.8°C40.8%0hPa0V00:00:0000:00:0000:00:00
LY3OO-112026-08-30 11:45:1054.9150423.9403881°38km/h5120m4.8m/s-10.8°C37.7%0hPa0V00:00:0000:00:0000:00:00
LY3OO-112026-08-30 11:44:4854.9146223.9365687°40km/h5028m6.7m/s-10.2°C28.5%0hPa0V00:00:0000:00:0000:00:00
LY3OO-112026-08-30 11:44:2854.9141723.9334768°37km/h4926m4.9m/s-9.3°C28.3%0hPa0V00:00:0000:00:0000:00:00
LY3OO-112026-08-30 11:44:0754.9138823.9301367°38km/h4823m7.7m/s-8.5°C26.5%0hPa0V00:00:0000:00:0000:00:00
LY3OO-112026-08-30 11:43:2554.9128523.9234573°44km/h4605m5.8m/s-7.5°C24.3%0hPa0V00:00:0000:00:0000:00:00
LY3OO-112026-08-30 11:43:0454.9119523.9196469°42km/h4476m7.2m/s-6.8°C34.7%0hPa0V00:00:0000:00:0000:00:00
LY3OO-112026-08-30 11:42:4354.9109823.9160466°44km/h4340m6.7m/s-5.7°C34.0%0hPa0V00:00:0000:00:0000:00:00
LY3OO-112026-08-30 11:42:2354.9102323.9129483°35km/h4224m5.3m/s-4.8°C32.2%0hPa0V00:00:0000:00:0000:00:00
LY3OO-112026-08-30 11:42:0354.9094923.9095572°35km/h4102m6.0m/s-3.8°C32.7%0hPa0V00:00:0000:00:0000:00:00
LY3OO-112026-08-30 11:41:4154.9086523.9063963°38km/h3979m6.7m/s-2.7°C31.0%0hPa0V00:00:0000:00:0000:00:00
LY3OO-112026-08-30 11:41:2054.9077823.9031670°40km/h3859m7.4m/s-2.5°C40.2%0hPa0V00:00:0000:00:0000:00:00
LY3OO-112026-08-30 11:40:5954.9072723.8996991°40km/h3745m5.4m/s-2.4°C56.8%0hPa0V00:00:0000:00:0000:00:00
LY3OO-112026-08-30 11:40:3854.9065023.8965641°29km/h3630m6.0m/s-3.9°C71.9%0hPa0V00:00:0000:00:0000:00:00
LY3OO-112026-08-30 11:40:1954.9053823.8950130°26km/h3516m6.1m/s-3.4°C81.5%0hPa0V00:00:0000:00:0000:00:00
LY3OO-112026-08-30 11:39:5754.9045123.8937052°26km/h3389m7.1m/s-2.4°C81.6%0hPa0V00:00:0000:00:0000:00:00
LY3OO-112026-08-30 11:39:3654.9037123.8923725°18km/h3262m7.4m/s-1.3°C78.5%0hPa0V00:00:0000:00:0000:00:00
LY3OO-112026-08-30 11:39:1654.9027123.8912049°22km/h3140m5.1m/s-0.2°C74.4%0hPa0V00:00:0000:00:0000:00:00
LY3OO-112026-08-30 11:38:5654.9018623.8899761°18km/h3024m6.6m/s0.6°C69.3%0hPa0V00:00:0000:00:0000:00:00
LY3OO-112026-08-30 11:38:3554.9013023.8882564°22km/h2895m7.4m/s1.7°C65.1%0hPa0V00:00:0000:00:0000:00:00
LY3OO-112026-08-30 11:38:1454.9008923.8863981°22km/h2757m7.1m/s2.0°C82.5%0hPa0V00:00:0000:00:0000:00:00
LY3OO-112026-08-30 11:37:5454.9005323.8843177°22km/h2622m6.6m/s3.1°C0%0hPa0V00:00:0000:00:0000:00:00
LY3OO-112026-08-30 11:37:3454.9000623.8823075°29km/h2489m7.3m/s0°C0%0hPa0V00:00:0000:00:0000:00:00
LY3OO-112026-08-30 11:37:1354.8996423.8799661°26km/h2349m7.8m/s0°C0%0hPa0V00:00:0000:00:0000:00:00
LY3OO-112026-08-30 11:33:0854.8915823.8523856°35km/h830m5.1m/s0°C0%0hPa0V00:00:0000:00:0000:00:00
LY3OO-112026-08-30 11:32:4654.8903923.8500155°35km/h721m4.8m/s0°C0%0hPa0V00:00:0000:00:0000:00:00


GPX KML Map

© wettersonde.net (DO2JMG) - 2026  -  -